Estación de Casablanca
Ultimos registro cada 15 minutos 60
| N° | Estación | Fecha / Hora | Temperatura | Humedad | Lluvia | Velocidad | Dirección | Radiación | Presion |
| 60 | Casablanca | 09-05-2026 14:45 | 19,9 | 59,7 | 0 | 1 | 275 | 325,6 | 985 |
| 59 | Casablanca | 09-05-2026 14:30 | 20,4 | 58,8 | 0 | 1 | 264 | 501,9 | 985 |
| 58 | Casablanca | 09-05-2026 14:15 | 20,8 | 58,2 | 0 | 0,5 | 265 | 78,1 | 985,1 |
| 57 | Casablanca | 09-05-2026 14:00 | 20,7 | 59,7 | 0 | 1 | 271 | 545,6 | 985,1 |
| 56 | Casablanca | 09-05-2026 13:45 | 19,9 | 60,6 | 0 | 1 | 265 | 511,9 | 985,4 |
| 55 | Casablanca | 09-05-2026 13:30 | 19,3 | 62,5 | 0 | 1 | 261 | 550,6 | 985,5 |
| 54 | Casablanca | 09-05-2026 13:15 | 19,6 | 62,2 | 0 | 1,5 | 261 | 379,4 | 985,6 |
| 53 | Casablanca | 09-05-2026 13:00 | 19,6 | 63,1 | 0 | 1 | 261 | 594,4 | 985,6 |
| 52 | Casablanca | 09-05-2026 12:45 | 19,8 | 63,8 | 0 | 1 | 274 | 324,4 | 985,6 |
| 51 | Casablanca | 09-05-2026 12:30 | 20,9 | 57,9 | 0 | 1 | 278 | 598,1 | 985,5 |
| 50 | Casablanca | 09-05-2026 12:15 | 21,6 | 47,6 | 0 | 0,5 | 271 | 596,9 | 985,6 |
| 49 | Casablanca | 09-05-2026 12:00 | 20,8 | 53,5 | 0 | 0 | 284 | 588,1 | 985,7 |
| 48 | Casablanca | 09-05-2026 11:45 | 20,1 | 54,6 | 0 | 0 | 32 | 576,9 | 985,9 |
| 47 | Casablanca | 09-05-2026 11:30 | 18,8 | 55,2 | 0 | 0 | 313 | 561,9 | 986 |
| 46 | Casablanca | 09-05-2026 11:15 | 17,5 | 65 | 0 | 0 | 313 | 541,9 | 986,2 |
| 45 | Casablanca | 09-05-2026 11:00 | 15,9 | 67,4 | 0 | 0 | 302 | 518,1 | 986,4 |
| 44 | Casablanca | 09-05-2026 10:45 | 13,3 | 82,8 | 0 | 0 | 341 | 490,6 | 986,5 |
| 43 | Casablanca | 09-05-2026 10:30 | 11 | 100 | 0 | 0 | 1 | 459,4 | 986,7 |
| 42 | Casablanca | 09-05-2026 10:15 | 10,5 | 100 | 0 | 0 | 44 | 418,1 | 986,6 |
| 41 | Casablanca | 09-05-2026 10:00 | 9,2 | 100 | 0 | 0 | 91 | 395,6 | 986,8 |
| 40 | Casablanca | 09-05-2026 09:45 | 7,9 | 100 | 0 | 0 | 93 | 190,6 | 987 |
| 39 | Casablanca | 09-05-2026 09:30 | 7,9 | 100 | 0 | 0 | 94 | 140,6 | 987 |
| 38 | Casablanca | 09-05-2026 09:15 | 7,3 | 100 | 0 | 0 | 110 | 144,4 | 987 |
| 37 | Casablanca | 09-05-2026 09:00 | 6,9 | 100 | 0 | 0 | 132 | 130,6 | 987,1 |
| 36 | Casablanca | 09-05-2026 08:45 | 6,4 | 100 | 0 | 0 | 132 | 81,9 | 987 |
| 35 | Casablanca | 09-05-2026 08:30 | 6,2 | 100 | 0 | 0 | 132 | 80,6 | 986,9 |
| 34 | Casablanca | 09-05-2026 08:15 | 6 | 100 | 0 | 0 | 132 | 60,6 | 986,9 |
| 33 | Casablanca | 09-05-2026 08:00 | 5,8 | 100 | 0 | 0 | 132 | 26,9 | 986,8 |
| 32 | Casablanca | 09-05-2026 07:45 | 5,8 | 100 | 0 | 0 | 132 | 15,6 | 987 |
| 31 | Casablanca | 09-05-2026 07:30 | 5,6 | 100 | 0 | 0 | 132 | 1,9 | 986,9 |
| 30 | Casablanca | 09-05-2026 07:15 | 5,7 | 100 | 0 | 0 | 132 | 0,6 | 986,9 |
| 29 | Casablanca | 09-05-2026 07:00 | 6,4 | 100 | 0 | 0 | 132 | 0,6 | 986,8 |
| 28 | Casablanca | 09-05-2026 06:45 | 7,1 | 100 | 0 | 0 | 132 | 0,6 | 986,9 |
| 27 | Casablanca | 09-05-2026 06:30 | 7,4 | 100 | 0 | 0 | 132 | 0,6 | 986,9 |
| 26 | Casablanca | 09-05-2026 06:15 | 7,6 | 100 | 0 | 0 | 132 | 0,6 | 986,8 |
| 25 | Casablanca | 09-05-2026 06:00 | 7,8 | 100 | 0 | 0 | 129 | 0,6 | 986,7 |
| 24 | Casablanca | 09-05-2026 05:45 | 8,2 | 100 | 0 | 0 | 124 | 0,6 | 986,8 |
| 23 | Casablanca | 09-05-2026 05:30 | 8,2 | 100 | 0 | 0 | 121 | 0,6 | 986,9 |
| 22 | Casablanca | 09-05-2026 05:15 | 8,2 | 100 | 0 | 0 | 122 | 0,6 | 986,7 |
| 21 | Casablanca | 09-05-2026 05:00 | 8,3 | 100 | 0 | 0 | 122 | 0,6 | 986,8 |
| 20 | Casablanca | 09-05-2026 04:45 | 8,4 | 100 | 0 | 0 | 119 | 0,6 | 986,9 |
| 19 | Casablanca | 09-05-2026 04:30 | 8,4 | 100 | 0 | 0 | 124 | 0,6 | 987 |
| 18 | Casablanca | 09-05-2026 04:15 | 8,6 | 100 | 0 | 0 | 142 | 0,6 | 986,9 |
| 17 | Casablanca | 09-05-2026 04:00 | 8,7 | 100 | 0 | 0 | 164 | 0,6 | 987 |
| 16 | Casablanca | 09-05-2026 03:45 | 8,7 | 100 | 0 | 0 | 232 | 0,6 | 987 |
| 15 | Casablanca | 09-05-2026 03:30 | 8,7 | 100 | 0 | 0 | 230 | 0,6 | 987 |
| 14 | Casablanca | 09-05-2026 03:15 | 8,6 | 100 | 0 | 0 | 230 | 0,6 | 987 |
| 13 | Casablanca | 09-05-2026 03:00 | 8,5 | 100 | 0 | 0 | 230 | 0,6 | 987,2 |
| 12 | Casablanca | 09-05-2026 02:45 | 8,6 | 100 | 0 | 0 | 230 | 0,6 | 987,4 |
| 11 | Casablanca | 09-05-2026 02:30 | 8,7 | 100 | 0 | 0 | 230 | 0,6 | 987,5 |
| 10 | Casablanca | 09-05-2026 02:15 | 8,9 | 100 | 0 | 0 | 201 | 0,6 | 987,5 |
| 9 | Casablanca | 09-05-2026 02:00 | 9 | 100 | 0 | 0 | 145 | 0,6 | 987,6 |
| 8 | Casablanca | 09-05-2026 01:45 | 8,9 | 100 | 0 | 0 | 142 | 0,6 | 987,7 |
| 7 | Casablanca | 09-05-2026 01:30 | 8,9 | 100 | 0 | 0 | 142 | 0,6 | 987,9 |
| 6 | Casablanca | 09-05-2026 01:15 | 9 | 100 | 0 | 0 | 129 | 0,6 | 987,9 |
| 5 | Casablanca | 09-05-2026 01:00 | 9,2 | 100 | 0 | 0 | 132 | 0,6 | 988 |
| 4 | Casablanca | 09-05-2026 00:45 | 9,5 | 100 | 0 | 0 | 146 | 0,6 | 988,1 |
| 3 | Casablanca | 09-05-2026 00:30 | 9,8 | 100 | 0 | 0 | 124 | 0,6 | 988,4 |
| 2 | Casablanca | 09-05-2026 00:15 | 9,9 | 100 | 0 | 0 | 133 | 0,6 | 988,4 |
| 1 | Casablanca | 09-05-2026 00:00 | 10,1 | 100 | 0 | 0 | 140 | 0,6 | 988,6 |